Location: Genezer Estates
(38.2246°N, 75.1930°W)
Time: 12:32:33
(UTC+00:00)

Daily predictions for brighter satellites

Satellite Brightness Start Highest point End
(mag) Time Altitude Azimuth Time Altitude Azimuth Time Altitude Azimuth
Cosmos 1763 Rocket 3.5 21:59:53 10° SSW 22:04:56 86° ESE 22:10:03 10° NNE
USA 276 3.0 22:02:22 10° NW 22:05:11 30° NNE 22:07:59 10° E
Cosmos 2034 Rocket 4.0 22:01:12 10° S 22:07:22 88° E 22:13:33 10° N
Meteor PRIRODA 3.6 22:04:53 10° SSE 22:08:31 89° WSW 22:12:10 10° NNW
Cosmos 1697 Rocket 3.1 22:04:33 10° N 22:09:48 39° ENE 22:15:00 10° SE
Cosmos 841 Rocket 4.0 22:05:54 10° S 22:10:40 39° ESE 22:15:27 10° NE
Cosmos 1980 Rocket 3.3 22:09:10 10° N 22:13:31 22° NE 22:17:50 10° ESE
Cosmos 1602 4.3 22:14:04 10° N 22:17:39 36° E 22:21:14 10° SSE
Cosmos 1408 Rocket 4.2 22:13:41 10° NNW 22:17:59 61° W 22:22:19 10° S
Cosmos 1937 Rocket 4.0 22:13:14 10° N 22:18:10 37° ENE 22:23:02 10° SE
Cosmos 1782 3.3 22:16:22 10° SSE 22:20:06 40° E 22:23:52 10° NNE
Okean O Rocket 3.1 22:17:42 10° ESE 22:20:30 17° ENE 22:23:18 10° NNE
Meteor 1-25 Rocket 4.2 22:15:21 10° N 22:20:51 60° E 22:26:24 10° SSE
NOAA 6 4.0 22:16:18 10° SSE 22:21:23 67° ENE 22:26:29 10° N
Cosmos 2082 Rocket 2.5 22:18:04 10° S 22:23:28 47° ESE 22:28:52 10° NE
Cosmos 1151 Rocket 4.1 22:20:29 10° SE 22:23:57 24° E 22:27:27 10° NE
Cosmos 1743 Rocket 3.5 22:21:34 10° N 22:25:54 83° E 22:30:14 10° S
Cosmos 990 Rocket 3.9 22:21:14 10° NNW 22:26:27 85° ENE 22:31:36 10° SSE
USA 267 4.2 22:21:41 10° NE 22:27:41 40° NNW 22:33:41 10° W
ISS -1.6 22:26:10 10° NNW 22:27:51 13° NNE 22:29:10 11° NE
Cosmos 1634 Rocket 4.1 22:22:38 10° S 22:28:49 60° E 22:35:03 10° NNE
CORIOLIS 4.1 22:23:47 10° SSE 22:29:07 70° ENE 22:34:31 10° N
CZ-4B DEB 4.2 22:25:00 10° SSE 22:30:25 61° ENE 22:35:50 10° N
CZ-2D R/B 3.5 22:31:27 10° SSE 22:35:08 45° ENE 22:38:47 10° N
Cosmos 1340 Rocket 3.6 22:31:17 10° NNW 22:35:17 56° W 22:39:16 10° S
Cosmos 1666 Rocket 4.4 22:33:29 10° NNE 22:37:16 27° ENE 22:41:01 10° SE
Cosmos 2026 Rocket 3.9 22:34:26 10° N 22:40:32 66° E 22:46:32 10° SSE
COSMOS 2406 3.5 22:36:02 10° SSW 22:41:46 72° WNW 22:47:30 10° NNE
MOS 1-B Rocket 4.2 22:36:20 10° NNE 22:42:19 65° ESE 22:49:10 10° S
CZ-2C R/B 3.4 22:40:16 10° SSW 22:42:57 17° SSE 22:45:28 10° ESE
Cosmos 2195 Rocket 4.4 22:37:39 10° N 22:43:51 84° E 22:50:04 10° S
USA 229 DEB 3.9 22:37:42 10° NNW 22:45:12 79° ENE 22:53:05 10° SE
USA 229 3.9 22:37:48 10° NNW 22:45:17 78° ENE 22:53:09 10° SE
ARGOS 3.7 22:41:09 10° SE 22:46:00 35° ENE 22:50:52 10° N
COSMOS 2455 2.9 22:40:51 10° SSW 22:46:53 88° WNW 22:52:57 10° NNE
Cosmos 1833 Rocket 3.6 22:41:52 10° SW 22:47:16 48° WNW 22:52:43 10° NNE
Cosmos 858 Rocket 4.4 22:44:58 10° NNW 22:50:15 66° ENE 22:55:28 10° SSE
ATLAS CENTAUR R/B 4.2 22:39:46 10° WSW 22:50:26 45° NW 22:54:53 11° NNE
SKYMED 2 3.7 22:46:18 10° NNE 22:50:33 51° E 22:54:46 10° S
Cosmos 1500 3.1 22:47:21 10° N 22:51:02 60° E 22:54:42 10° SSE
Meteor 2-14 Rocket 4.3 22:45:10 10° N 22:51:17 74° E 22:57:19 10° SSE
Landsat 5 4.0 22:50:05 16° NE 22:52:51 35° E 22:56:29 10° SSE
PAYLOAD B 4.2 22:52:24 10° SSE 22:58:00 83° ENE 23:03:38 10° NNW
USA 234 3.2 22:52:09 10° SE 22:58:41 79° NE 23:05:13 10° NW
Cosmos 1570 Rocket 4.0 22:53:56 10° S 22:59:04 58° ESE 23:03:29 14° NNE
SMAP 4.2 22:55:09 10° S 22:59:37 47° W 23:04:07 10° NNW
Cosmos 540 Rocket 4.3 22:56:17 10° SW 23:01:13 50° WNW 23:06:11 10° N
PSLV R/B 4.0 22:57:35 10° S 23:01:14 68° W 23:04:56 10° NNW
CZ-4B R/B 3.1 22:58:38 10° SSE 23:04:00 64° ENE 23:09:19 10° N
Cosmos 1814 Rocket 3.9 23:00:55 10° SSW 23:06:10 80° ESE 23:10:55 12° NNE
Sich 1 3.2 23:02:00 10° NNW 23:06:17 72° W 23:10:34 10° S
Cosmos 1805 Rocket 4.3 23:02:03 10° NNW 23:06:17 54° W 23:10:29 10° S
NOSS 3-1 (A) 4.5 23:00:59 10° NW 23:08:51 73° WSW 23:17:48 10° SSE
Meteor 2-8 Rocket 4.4 23:04:58 10° S 23:10:59 60° E 23:17:02 10° NNE
GPS 2-04 Rocket1 3.1 23:07:09 10° W 23:11:13 57° S 23:12:59 30° ESE
CZ-2C R/B 2.5 23:06:10 10° NNE 23:11:22 86° E 23:16:32 10° SSW
Cosmos 1900 4.3 23:08:33 10° SSW 23:13:20 63° ESE 23:15:36 30° NE
Meteor 2-21 Rocket 4.3 23:07:13 10° N 23:13:20 82° E 23:19:23 10° S
deb Chang Zheng 4 3.4 23:12:02 10° SSE 23:16:20 78° ENE 23:20:39 10° N
CZ-4C R/B 3.2 23:18:27 45° SE 23:18:27 45° SE 23:21:12 10° S
Cosmos 1515 Rocket 4.1 23:15:56 10° SSE 23:19:38 37° ESE 23:19:38 37° ESE
Cosmos 1666 2.4 23:16:56 10° N 23:20:40 76° E 23:24:21 10° S
Feng Yun 1-1 Rocket 4.5 23:19:23 10° SE 23:25:06 52° ENE 23:30:47 10° N
YAOGAN 3 4.4 23:22:20 10° SSE 23:26:42 85° ENE 23:31:04 10° NNW
CZ-4C R/B 3.1 23:22:46 10° NNW 23:30:06 57° NE 23:36:22 19° SE
Cosmos 2208 Rocket 4.0 23:26:39 10° SSW 23:32:01 87° WNW 23:35:28 24° NNE
Cosmos 1812 4.1 23:29:30 10° SSW 23:33:07 39° W 23:36:45 10° N
H-2A R/B 3.0 23:29:01 10° S 23:34:03 48° W 23:38:58 10° NNW
SJ-11-01 4.4 23:29:58 10° S 23:34:43 78° WSW 23:39:28 10° NNW
X-37B 3.1 23:34:44 10° SSW 23:35:19 14° SSW 23:35:19 14° SSW
APEX 4.1 23:33:41 10° S 23:36:46 38° SSE 23:36:46 38° SSE
COSMO-SKYMED 1 3.7 23:34:26 10° N 23:38:33 43° WNW 23:42:39 10° SW
USA 276 3.9 23:38:26 10° WNW 23:41:09 28° SW 23:41:29 27° SSW
USA 32 4.3 23:41:00 10° SSE 23:45:09 50° SE 23:45:09 50° SE
Spot 2 4.4 23:41:18 10° SSE 23:46:20 66° ENE 23:51:27 10° N
Cosmos 921 Rocket 2.9 23:43:26 10° SSW 23:47:24 79° WSW 23:47:24 79° WSW
DMSP B5D1-3 4.3 23:49:22 70° E 23:49:29 70° ESE 23:54:34 10° S
Cosmos 1633 Rocket 3.8 23:45:46 10° NNW 23:50:02 53° W 23:54:17 10° S
Cosmos 2322 Rocket 4.2 23:46:27 10° N 23:47:28 14° N 23:47:28 14° N
